Mobridge, SD

3:54 AM CST on January 17, 2018 (GMT -0600)
Mobridge Municipal

Weather History for KMBG - September, 2013

Change the Weather History Date:

Friday, September 27, 2013

  Actual Average Record
Temperature  
Mean Temperature 52 °F 55 °F  
Max Temperature 57 °F 69 °F 101 °F (1952)
Min Temperature 47 °F 42 °F 17 °F (1928)
Degree Days  
Heating Degree Days 13 10  
Month to date heating degree days 54 155  
Since 1 July heating degree days 67 188  
Cooling Degree Days 0 0  
Month to date cooling degree days 116 60  
Year to date cooling degree days 700 641  
Growing Degree Days 2 (Base 50)    
Moisture  
Dew Point 44 °F    
Average Humidity 78    
Maximum Humidity 93    
Minimum Humidity 62    
Precipitation  
Precipitation 0.13 in 0.05 in 0.43 in (1929)
Month to date precipitation 3.33 1.39  
Year to date precipitation 17.15 15.30  
Sea Level Pressure  
Sea Level Pressure 29.81 in    
Wind  
Wind Speed 12 mph (NNW)    
Max Wind Speed 21 mph    
Max Gust Speed 28 mph    
Visibility 10 miles    
Events Rain    
T = Trace of Precipitation, MM = Missing Value Source: NWS Daily Summary

Daily Weather History Graph

Daily Weather History Graph

Search for Another Location

Airport or City:

Trip Planner

Search our weather history database for the weather conditions in past years. The results will help you decide how hot, cold, wet, or windy it might be!

Date:

Astronomy

Sep. 27, 2013 Rise Set
Actual Time 7:35 AM CDT 7:28 PM CDT
Civil Twilight 7:05 AM CDT 7:58 PM CDT
Nautical Twilight 6:31 AM CDT 8:32 PM CDT
Astronomical Twilight 5:55 AM CDT 9:08 PM CDT
Moon 12:16 AM CDT (9/27) 3:24 PM CDT (9/27)
Length of Visible Light 12h 52m
Length of Day
11h 53m
Last Quarter, 45% of the Moon is Illuminated
Sep 27
Last Quarter
Oct 4
New
Oct 11
First Quarter
Oct 18
Full
Oct 26
Last Quarter

Hourly Weather History & Observations

Time (CDT) Temp. Dew Point Humidity Pressure Visibility Wind Dir Wind Speed Gust Speed Precip Events Conditions
12:52 AM 53.1 °F 42.1 °F 66% 29.83 in 10.0 mi NNW 12.7 mph - N/A   Overcast
1:52 AM 52.0 °F 41.0 °F 66% 29.84 in 10.0 mi North 11.5 mph 20.7 mph N/A   Overcast
2:52 AM 50.0 °F 43.0 °F 77% 29.81 in 10.0 mi North 13.8 mph 23.0 mph 0.02 in   Overcast
3:52 AM 50.0 °F 44.1 °F 80% 29.80 in 10.0 mi North 11.5 mph - N/A   Overcast
4:52 AM 50.0 °F 43.0 °F 77% 29.78 in 10.0 mi North 15.0 mph - N/A   Overcast
5:52 AM 50.0 °F 44.1 °F 80% 29.80 in 10.0 mi North 11.5 mph - N/A   Overcast
6:52 AM 50.0 °F 43.0 °F 77% 29.80 in 10.0 mi North 13.8 mph - N/A   Overcast
7:52 AM 48.9 °F 44.1 °F 83% 29.80 in 10.0 mi North 13.8 mph - N/A   Overcast
8:34 AM 50.0 °F 44.6 °F 82% 29.80 in 10.0 mi North 10.4 mph 19.6 mph N/A   Overcast
8:43 AM 50.0 °F 44.6 °F 82% 29.80 in 10.0 mi North 10.4 mph - N/A   Overcast
8:52 AM 50.0 °F 44.1 °F 80% 29.81 in 10.0 mi North 11.5 mph - N/A   Overcast
9:52 AM 50.0 °F 44.1 °F 80% 29.81 in 10.0 mi North 15.0 mph 20.7 mph N/A   Overcast
10:07 AM 50.0 °F 42.8 °F 76% 29.80 in 10.0 mi North 12.7 mph 21.9 mph N/A   Overcast
10:52 AM 50.0 °F 43.0 °F 77% 29.81 in 10.0 mi North 12.7 mph - N/A   Overcast
11:52 AM 52.0 °F 44.1 °F 74% 29.79 in 10.0 mi North 18.4 mph - N/A   Overcast
12:10 PM 53.6 °F 44.6 °F 72% 29.78 in 10.0 mi North 16.1 mph - N/A   Overcast
12:52 PM 53.1 °F 44.1 °F 71% 29.79 in 10.0 mi North 13.8 mph - N/A   Overcast
1:52 PM 55.0 °F 44.1 °F 67% 29.79 in 10.0 mi North 10.4 mph - N/A   Overcast
2:15 PM 55.4 °F 44.6 °F 67% 29.79 in 10.0 mi NNW 11.5 mph - N/A   Overcast
2:22 PM 55.4 °F 44.6 °F 67% 29.78 in 10.0 mi North 9.2 mph - N/A   Overcast
2:52 PM 57.0 °F 45.0 °F 64% 29.78 in 10.0 mi NNW 9.2 mph - N/A   Overcast
3:38 PM 55.4 °F 44.6 °F 67% 29.79 in 10.0 mi NW 10.4 mph - N/A   Overcast
3:45 PM 55.4 °F 44.6 °F 67% 29.79 in 10.0 mi NNW 12.7 mph - N/A   Overcast
3:52 PM 55.9 °F 44.1 °F 64% 29.79 in 10.0 mi NNW 11.5 mph - N/A   Overcast
4:52 PM 55.0 °F 45.0 °F 69% 29.79 in 10.0 mi NNW 9.2 mph - N/A   Overcast
5:10 PM 55.4 °F 44.6 °F 67% 29.79 in 10.0 mi NNW 9.2 mph - N/A   Overcast
5:50 PM 55.4 °F 44.6 °F 67% 29.79 in 10.0 mi NNW 10.4 mph - N/A   Overcast
5:52 PM 55.0 °F 45.0 °F 69% 29.80 in 10.0 mi NNW 9.2 mph - N/A   Overcast
6:52 PM 55.0 °F 45.0 °F 69% 29.83 in 10.0 mi NW 8.1 mph - N/A   Overcast
7:04 PM 53.6 °F 44.6 °F 72% 29.83 in 10.0 mi NW 6.9 mph - N/A   Overcast
7:52 PM 54.0 °F 45.0 °F 72% 29.82 in 10.0 mi NNW 10.4 mph - N/A   Overcast
8:20 PM 53.6 °F 44.6 °F 72% 29.82 in 10.0 mi NW 16.1 mph - N/A   Overcast
8:38 PM 51.8 °F 44.6 °F 76% 29.83 in 10.0 mi NW 15.0 mph - N/A   Overcast
8:52 PM 52.0 °F 45.0 °F 77% 29.84 in 10.0 mi NNW 11.5 mph - N/A   Overcast
9:52 PM 48.9 °F 46.0 °F 90% 29.84 in 8.0 mi NW 13.8 mph - 0.01 in Rain Light Rain
10:08 PM 48.2 °F 46.4 °F 93% 29.84 in 9.0 mi NW 15.0 mph - 0.01 in Rain Light Rain
10:38 PM 48.2 °F 46.4 °F 93% 29.85 in 5.0 mi NW 13.8 mph - 0.04 in Rain Rain
10:52 PM 48.0 °F 46.9 °F 96% 29.86 in 9.0 mi NW 13.8 mph 21.9 mph 0.05 in Rain Light Rain
11:12 PM 48.2 °F 46.4 °F 93% 29.85 in 10.0 mi NW 10.4 mph - 0.02 in Rain Rain
11:52 PM 46.9 °F 45.0 °F 93% 29.85 in 10.0 mi NW 12.7 mph - 0.04 in Rain Light Rain